ONEWEB-0006 (44061 NORAD) Tracking and Keplerian Element Data

This shows tracking and keplerian element data for the satellite.

Feedback or suggestion? Click here.




ElementValue
Catalog44061
NameONEWEB-0006
Epoch Orbit397
Epoch Day88.029761
Epoch Year2019
RAAN64.021
Inclination87.7735
Eccentricity0.0015869
Argument of Perigee157.7832
Mean Anonmoly202.402
Mean Motion13.69966784
Decay Rate3.9E-07
L11 44061U 19010E 19088.02976100 .00000039 00000-0 27348-4 0 9997
L22 44061 87.7735 64.0210 0015869 157.7832 202.4020 13.69966784 3977

Live tracking and technical data element details for ONEWEB-0006 (NORAD 44061). ONEWEB-0006 can be tracked NOW for your location showing map with azimuth and elevation plus other details from your city location.

Track the satellite on the map from your city or location and see movement details for azimuth, elevation, latitude, longitude, range, height, and movement on the map or in text.







IsCatalogInMostPopularTable: catalog: 44061, numindb: 181
Update: records affected: 1



GetName: 44061 ONEWEB-0006

Hit Count: updated at: Tue, 23 Jul 2019 02:32:53 GMT